User: anonymous   Login
Location: Hokitika
(42.7170°S, 170.9670°E)
Time: 23:42:39
(UTC+13:00)
Language:

Meteor 1-25 Rocket - Orbit

View from above orbital plane
View from above orbital plane
View from above satellite
View from above satellite

Ground track
Ground track

The orbit data is extracted from the following two-line orbital elements,

1  8846U 76043B   19084.96113684 -.00000033 +00000-0 -26378-4 0  9994
2  8846 081.2281 042.6355 0036366 351.6095 008.4462 14.08590815201859
Epoch (UTC): 25 March 2019 23:04:02
Eccentricity: 0.0036366
inclination: 81.2281°
perigee height: 838 km
apogee height: 890 km
right ascension of ascending node: 42.6355°
argument of perigee: 351.6095°
revolutions per day: 14.08590815
mean anomaly at epoch: 8.4462°
orbit number at epoch: 20185

The dashed part of the orbit path shows where the satellite is in the earth's shadow,  

DLR